Regional Weather Roundup
Issued by NWS Grand Forks, ND

Current Version | Previous Version | Text Only | Print | Product List | Glossary On
Versions: 1 2 3 4 5 6 7 8 9 10 11 12 13 14 15 16 17 18 19 20 21 22 23 24 25 26 27 28 29 30 31 32 33 34 35 36 37 38 39 40 41 42 43 44 45 46 47 48 49 50
000
ASUS43 KFGF 170031
RWRFGF
PRAIRIE TO PINES  WEATHER ROUNDUP
NATIONAL WEATHER SERVICE EASTERN NORTH DAKOTA/GRAND FORKS ND
700 PM CDT WED AUG 16 2017

 **SATELLITE DATA USED TO AUGMENT SKY COVER AT AUTOMATED STATIONS**
 *****  WEATHER ACROSS EASTERN NORTH DAKOTA  *****

CITY           SKY/WX    TMP DP  RH WIND       PRES   REMARKS
GRAND FORKS    CLOUDY    69  65  86 N9        29.82F
6HR MIN TEMP:  66; 6HR MAX TEMP:  70; 6HR PCP:  0.02;

GRAND FRKS AFB PTSUNNY   69  62  81 NE7       29.84F
DEVILS LAKE    FAIR      74  57  55 NW12      29.87F
6HR MIN TEMP:  69; 6HR MAX TEMP:  74;

FARGO          LGT RAIN  67  66  97 N10       29.81S
WAHPETON ARPT  CLOUDY    66  63  88 N7        29.78F
$$

 ***** WEATHER ACROSS CENTRAL AND WESTERN NORTH DAKOTA  *****

CITY           SKY/WX    TMP DP  RH WIND       PRES   REMARKS
BISMARCK       FAIR      78  52  40 N10       29.90S
6HR MIN TEMP:  72; 6HR MAX TEMP:  80;

MINOT          FAIR      79  51  37 N6        29.89F
6HR MIN TEMP:  75; 6HR MAX TEMP:  80;

JAMESTOWN      FAIR      70  61  73 N8        29.85S
6HR MIN TEMP:  68; 6HR MAX TEMP:  75;

MINOT AFB      FAIR      78  47  33 N5        29.87F
GARRISON         N/A     76  51  41 VRB7      29.89F
WILLISTON      FAIR      82  52  35 SE5       29.87F
6HR MIN TEMP:  75; 6HR MAX TEMP:  84;

DICKINSON      FAIR      80  50  34 CALM      29.91F
6HR MIN TEMP:  75; 6HR MAX TEMP:  81;

HETTINGER      FAIR      78  48  34 CALM      29.95F
6HR MIN TEMP:  74; 6HR MAX TEMP:  80;

$$

 *****  OTHER AIRPORT OBSERVATIONS IN OUR AREA  *****

CITY           SKY/WX    TMP DP  RH WIND       PRES   REMARKS
WALHALLA       FAIR      72  72 100 NE3       29.85S
GRAFTON AIRPOR FAIR      68  64  88 NE7       29.85F
VALLEY CITY AR   N/A     64  66 100 N8        29.86S
CANDO          FAIR      73  59  60 N8G15     29.89F
CAVALIER APRT  FAIR      72  63  73 E3        29.84S
GWINNER        CLOUDY    66  64  94 N12       29.81F
SHEYENNE NWR     N/A     66  66 100 N7        29.95S
ROLLA          FAIR      72  57  60 N5        29.90F
 ***** THE ABOVE OBSERVATIONS ARE NON NWS ARE NOT QUALITY
       CONTROLLED AND MAY MIS-REPORT RAIN FOR SNOW...
$$

  *****  WEATHER ACROSS NORTHERN MINNESOTA  *****

CITY           SKY/WX    TMP DP  RH WIND       PRES   REMARKS
FLAG ISLAND    CLOUDY    63  57  82 CALM      29.87F
WARROAD        CLOUDY    64  61  88 SE10      29.86F
ROSEAU         CLOUDY    64  57  77 NE6       29.85F HAZE
HALLOCK        FAIR      66  63  88 E7        29.84F
THF RVR FALLS  CLOUDY    65  64  97 NE6       29.84F
6HR MIN TEMP:  64; 6HR MAX TEMP:  66; 6HR PCP:  0.03;

BAUDETTE       LGT RAIN  62  62 100 E9        29.86F
6HR MIN TEMP:  62; 6HR MAX TEMP:  63; 6HR PCP:  0.47;

WASKISH        DRIZZLE   63  63 100 E6        29.85F
CROOKSTON      CLOUDY    64  64 100 NE3       29.83F
STEPHEN NDAWN    N/A     66  63  88 NE9         N/A
GREENBUSH NDAW   N/A     64  63  94 NE6         N/A
$$
  *****  WEATHER ACROSS CENTRAL AND WEST MINNESOTA  *****

CITY           SKY/WX    TMP DP  RH WIND       PRES   REMARKS
FOSSTON        DRIZZLE   64  63  94 CALM      29.83F
BEMIDJI        HVY RAIN  64  64  97 E3        29.83F
PARK RAPIDS    LGT RAIN  67  65  93 E3        29.81F
6HR MIN TEMP:  65; 6HR MAX TEMP:  68; 6HR PCP:  0.12;

ELBOW LAKE     RAIN      66  66 100 NE5       29.78S
WADENA         RAIN      64  64 100 E8        29.79F
DETROIT LAKES  LGT RAIN  64  64 100 NE5       29.82F
MOORHEAD       DRIZZLE   66  64  94 N9        29.81S
FERGUS FALLS   DRIZZLE   66  66 100 NE3       29.78F
MORRIS MN      LGT RAIN  68  66  94 NE9       29.74F
STAPLES        LGT RAIN  64  64 100 CALM      29.80F
$$
  *****  WEATHER ELSEWHERE ACROSS MINNESOTA  *****

CITY           SKY/WX    TMP DP  RH WIND       PRES   REMARKS
DULUTH         PTSUNNY   60  58  92 E18G25    29.85F
6HR MIN TEMP:  60; 6HR MAX TEMP:  64; 6HR PCP:  0.39;

INTRNTL FALLS  RAIN      62  60  93 E5        29.89S FOG
6HR MIN TEMP:  61; 6HR MAX TEMP:  71; 6HR PCP:  0.75;

ELY            DRIZZLE   61  57  88 E6        29.90F
CLOQUET        CLOUDY    61  57  88 E13G18    29.85S FOG
WHEATON        RAIN      66  64  94 N6        29.78S
BRAINERD       LGT RAIN  65  64  97 E8        29.80F FOG
                                      6HR PCP:  0.48;

HIBBING        LGT RAIN  61  61 100 E6        29.87S FOG
6HR MIN TEMP:  61; 6HR MAX TEMP:  67; 6HR PCP:  0.19;

ALEXANDRIA     LGT RAIN  67  66  97 NE10      29.79F FOG
6HR MIN TEMP:  67; 6HR MAX TEMP:  68; 6HR PCP:  0.21;

SAINT CLOUD    RAIN      68  68 100 NE9       29.72F FOG
6HR MIN TEMP:  69; 6HR MAX TEMP:  71; 6HR PCP: TRACE;

MINNEAPOLIS    LGT RAIN  76  69  79 E15       29.69F
6HR MIN TEMP:  72; 6HR MAX TEMP:  78; 6HR PCP: TRACE;

$$

  *****  WEATHER ACROSS SOUTH DAKOTA  *****

CITY           SKY/WX    TMP DP  RH WIND       PRES   REMARKS
SIOUX FALLS    CLOUDY    68  68 100 W8        29.72S
6HR MIN TEMP:  67; 6HR MAX TEMP:  69; 6HR PCP:  0.56;

BROOKINGS      RAIN      65  64  97 N9        29.74F
WATERTOWN      LGT RAIN  66  66 100 N13       29.75S
6HR MIN TEMP:  66; 6HR MAX TEMP:  68; 6HR PCP:  0.43;

HURON          LGT RAIN  67  67 100 NW10      29.78F
6HR MIN TEMP:  67; 6HR MAX TEMP:  68; 6HR PCP:  0.30;

SISSETON         N/A     68  67  96 N9        29.76F
ABERDEEN       CLOUDY    67  66  97 N13       29.81S
6HR MIN TEMP:  67; 6HR MAX TEMP:  70; 6HR PCP:  0.06;

MITCHELL       LGT RAIN  67  65  93 NW13      29.78F
PIERRE         FAIR      71  58  63 NW15      29.88S
6HR MIN TEMP:  66; 6HR MAX TEMP:  71;

MOBRIDGE       FAIR      73  62  68 NW8       29.87S
RAPID CITY     FAIR      79  46  31 N12       29.97F
6HR MIN TEMP:  74; 6HR MAX TEMP:  81;

$$

  *****  SOME WEATHER IN NEARBY STATES *****

CITY           SKY/WX    TMP DP  RH WIND       PRES   REMARKS
GLASGOW MT     FAIR      88  41  19 S6        29.79F
6HR MIN TEMP:  81; 6HR MAX TEMP:  89; 6HR PCP: TRACE;

GREAT FALLS MT FAIR      85  24  11 NW10G21   29.91S
6HR MIN TEMP:  78; 6HR MAX TEMP:  85;

CHEYENNE WY    PTSUNNY   70  37  29 CALM      30.16R
6HR MIN TEMP:  67; 6HR MAX TEMP:  74;

SCOTTSBLUFF NE FAIR      78  46  32 CALM      30.05S
6HR MIN TEMP:  74; 6HR MAX TEMP:  80;

OMAHA NE       FAIR      78  65  63 NW16      29.77R
6HR MIN TEMP:  78; 6HR MAX TEMP:  84;

DES MOINES IA  FAIR      85  68  56 SW16      29.71F
6HR MIN TEMP:  78; 6HR MAX TEMP:  86; 6HR PCP: TRACE;

DAVENPORT IA   FAIR      81  71  71 S15G25    29.81R
6HR MIN TEMP:  79; 6HR MAX TEMP:  83; 6HR PCP: TRACE;

CHICAGO IL     CLOUDY    77  71  82 SE8       29.87F
6HR MIN TEMP:  74; 6HR MAX TEMP:  88; 6HR PCP:  0.15;

EAU CLAIRE WI  FAIR      76  65  68 E12       29.76F
6HR MIN TEMP:  75; 6HR MAX TEMP:  81;

LA CROSSE WI   LGT RAIN  76  72  87 E10       29.75S
6HR MIN TEMP:  76; 6HR MAX TEMP:  89; 6HR PCP:  0.13;

$$

  *****  SOME NATIONAL WEATHER *****

CITY           SKY/WX    TMP DP  RH WIND       PRES   REMARKS
LA GUARDIA NY  FAIR      82  62  50 N6        29.96R
6HR MIN TEMP:  82; 6HR MAX TEMP:  86;

RALEIGH NC     FAIR      85  72  65 E6        30.01R HX  91
6HR MIN TEMP:  85; 6HR MAX TEMP:  92;

ATLANTA GA     FAIR      86  73  65 W7        30.04R HX  93
6HR MIN TEMP:  86; 6HR MAX TEMP:  91;

NEW ORLEANS LA MOCLDY    80  77  90 S3        30.04S
6HR MIN TEMP:  77; 6HR MAX TEMP:  93; 6HR PCP:  0.26;

OKLAHOMA CITY  FAIR      87  73  62 S16       29.82F HX  94
6HR MIN TEMP:  86; 6HR MAX TEMP:  90;

ALBUQUERQUE NM FAIR      87  31  13 SW13      30.08F
6HR MIN TEMP:  79; 6HR MAX TEMP:  89;

SALT LAKE CITY PTSUNNY   88  35  15 NW8       30.02S
6HR MIN TEMP:  80; 6HR MAX TEMP:  90;

LOS ANGELES CA FAIR      71  61  70 W15       29.94S
6HR MIN TEMP:  71; 6HR MAX TEMP:  75;

BOISE ID       FAIR



USA.gov is the U.S. government's official web portal to all federal, state and local government web resources and services.